This is the latest recevied weather packets stored in our database for station/object AE0NK. If no packets are shown the sender has not sent any weather packets the latest 10 day(s).
| Time | Temp. | Humidity | Pressure | Rain* | Wind** | Luminosity | Snow |
|---|---|---|---|---|---|---|---|
| 1778007201 | 12.22° C | 38% | 1011.3 hPa | 0 mm | - | 160 W/m² | - |
| 1778006899 | 12.22° C | 39% | 1011.4 hPa | 0 mm | - | 162 W/m² | - |
| 1778006596 | 12.22° C | 39% | 1011.6 hPa | 0 mm | - | 183 W/m² | - |
| 1778006292 | 12.22° C | 39% | 1011.6 hPa | 0 mm | - | 179 W/m² | - |
| 1778006004 | 12.22° C | 39% | 1011.5 hPa | 0 mm | - | 202 W/m² | - |
| 1778005702 | 12.78° C | 37% | 1011.4 hPa | 0 mm | - | 234 W/m² | - |
| 1778005400 | 12.78° C | 38% | 1011.5 hPa | 0 mm | - | 236 W/m² | - |
| 1778005099 | 12.22° C | 42% | 1011.5 hPa | 0 mm | - | 294 W/m² | - |
| 1778004797 | 12.22° C | 39% | 1011.7 hPa | 0 mm | - | 246 W/m² | - |
| 1778004496 | 12.78° C | 37% | 1011.7 hPa | 0 mm | - | 294 W/m² | - |
| 1778004194 | 12.78° C | 40% | 1011.7 hPa | 0 mm | - | 279 W/m² | - |
| 1778003910 | 12.78° C | 38% | 1011.6 hPa | 0 mm | - | 285 W/m² | - |
| 1778003606 | 12.22° C | 38% | 1011.6 hPa | 0 mm | - | 281 W/m² | - |
| 1778003303 | 12.78° C | 39% | 1011.7 hPa | 0 mm | - | 272 W/m² | - |
| 1778003000 | 12.78° C | 40% | 1011.6 hPa | 0 mm | - | 272 W/m² | - |
| 1778002718 | 12.78° C | 39% | 1011.6 hPa | 0 mm | - | 339 W/m² | - |
| 1778002409 | 12.78° C | 37% | 1011.7 hPa | 0 mm | - | 309 W/m² | - |
| 1778002110 | 13.33° C | 40% | 1011.8 hPa | 0 mm | - | 476 W/m² | - |
| 1778001808 | 13.33° C | 42% | 1011.6 hPa | 0 mm | - | 415 W/m² | - |
| 1778001505 | 12.78° C | 38% | 1011.6 hPa | 0 mm | - | 475 W/m² | - |
| 1778001202 | 12.22° C | 39% | 1011.8 hPa | 0 mm | - | 591 W/m² | - |
| 1778000900 | 12.22° C | 36% | 1011.7 hPa | 0 mm | - | 341 W/m² | - |
| 1778000598 | 12.78° C | 38% | 1011.7 hPa | 0 mm | - | 554 W/m² | - |
| 1778000294 | 12.22° C | 37% | 1011.7 hPa | 0 mm | - | 517 W/m² | - |
| 1777999992 | 12.78° C | 35% | 1011.7 hPa | 0 mm | - | 501 W/m² | - |
* Rain latest hour (hover to see other rain measurements)
** Current wind speed in m/s (hover to see current wind gust speed)